星链-34781 (STARLINK-34781)

导读

STARLINK-34781是美国SpaceX公司星链(Starlink)卫星互联网星座的一员,于2025年7月31日发射入轨。星链项目旨在构建全球低轨卫星互联网,为偏远欠发达地区及传统网络覆盖薄弱区域提供高速低延迟宽带服务。该卫星运行在近地轨道,属于星链巨型星座部署计划的一部分,将助力拓展全球网络覆盖范围,提升卫星互联网服务的容量与稳定性。

Basic Information
目录编号:
65073
目录名称:
STARLINK-34781
国际标识:
2025-165T
轨道中心:
EARTH
卫星名称:
星链-34781
卫星全名:
星链-34781 (STARLINK-34781)
卫星状态:
在轨 (已飞行408 天)
发射日期:
2025-07-31 UTC
国别 :
美国 (US)
星等 :
--
This satellite is enrolled in the Space Conjunction Data Service (SCDS) and the current flight risk assessment level is: No High Risk
Orbit Information
数据来源 国际轨道数据
星历时间: 2026-09-12T14:00:02+0800
10小时前
查看轨道信息
半长轴: 6912.663km
偏心率: 0.0002251
轨道倾角: 97.285°
近地点辐角 86.770°
升交点赤经 326.702°
平近点角 86.454°
近地点: 532.969km
远地点: 536.083km
周期: 95.330分钟
每日圈数: 15.105487
Detailed Information
固有亮度:
5
最大亮度:
2.5
卫星平台:
Starlink V1.0
覆盖范围:
全球
运营商:
太空探索技术公司
运营商所在国:
美国
制造商(研发单位):
太空探索技术公司
制造商所在国:
美国
使用方式:
暂无
Satellite Introduction
Starlink 计划是 SpaceX 推出的全球卫星互联网项目,通过发射低轨道卫星,为全球尤其是偏远地区提供高速、低延迟的互联网服务。自 2019 年起,Starlink 已部署数千颗卫星,旨在缩小全球数字鸿沟,推动互联网普及。该项目还为军事、航空等行业提供通信支持,带来广泛经济效益。
2D Orbit Map
3D Orbit Map
Orbit Altitude Analysis Chart
Orbit Inclination Analysis Chart
Orbit Comprehensive Analysis Chart
View Comprehensive Chart
Conjunction Data List
Event ID Objects TCA Miss Dist (km) Collision Risk Probability Collision Risk Index (CRI) Action
CDM_260913-021803-475206-507321
2026-09-13T
02:18:59+0000
1.879 km
极远距离
3.415067E-6 低风险 0.46
CDM_260913-053005-368506-507321
2026-09-13T
05:30:01+0000
2.569 km
极远距离
1.680252E-6 低风险 0.4
CDM_260911-081104-572706-507322
2026-09-11T
08:11:11+0000
2.677 km
极远距离
1.454739E-6 低风险 0.38
CDM_260914-131704-381906-507321
EXCITE (43819)
2026-09-14T
13:17:25+0000
2.135 km
极远距离
1.214736E-6 低风险 0.37
Miss Distance Evolution Trend with All Objects
Collision Probability Evolution Trend with All Objects